FW7086 Weather Reports


Display with metric or nautical units.
time (UTC)temp
F
wind
direction
speed
MPH
gust
MPH
rain 1hr
in
rain 24hr
in
rain mn
in
humidity
%
barometer
mb
20260505050552 63 341 1.0 2.0 0.00 0.00 0.00 41 1003.0
20260505041520 63 55 0.0 0.0 0.00 0.36 0.36 67 1002.5
20260505041017 63 226 1.0 1.0 0.00 0.36 0.36 66 1002.3
20260505040515 63 311 0.0 0.0 0.00 0.36 0.36 67 1002.4
20260505040012 63 179 2.0 2.0 0.00 0.36 0.36 67 1002.3
20260505035508 63 296 2.0 2.0 0.00 0.36 0.36 69 1002.5
20260505035005 63 137 4.0 7.0 0.00 0.36 0.36 69 1002.7
20260505034501 63 170 3.0 4.0 0.00 0.36 0.36 71 1002.7
20260505033958 63 2 1.0 1.0 0.00 0.36 0.36 70 1002.5
20260505033455 64 181 1.0 2.0 0.00 0.36 0.36 68 1002.5
20260505032953 64 182 2.0 2.0 0.00 0.36 0.36 66 1002.3
20260505032450 64 132 0.0 1.0 0.00 0.36 0.36 66 1001.9
20260505031946 64 224 2.0 3.0 0.00 0.36 0.36 66 1001.8
20260505031443 64 331 0.0 1.0 0.00 0.36 0.36 67 1001.6
20260505030940 64 316 2.0 3.0 0.00 0.36 0.36 67 1001.9
20260505030436 64 134 1.0 2.0 0.00 0.36 0.36 68 1002.1
20260505025932 64 282 3.0 3.0 0.00 0.36 0.36 69 1002.3
20260505025429 64 308 3.0 4.0 0.00 0.36 0.36 69 1002.3
20260505024928 64 207 2.0 2.0 0.00 0.36 0.36 69 1002.3
20260505024425 64 193 1.0 1.0 0.00 0.36 0.36 69 1002.0
20260505023922 64 219 4.0 4.0 0.00 0.36 0.36 69 1001.7
20260505023419 64 183 4.0 7.0 0.00 0.36 0.36 69 1001.6
20260505022916 64 206 4.0 4.0 0.00 0.36 0.36 69 1001.5
20260505022414 64 271 2.0 4.0 0.00 0.36 0.36 70 1001.3
20260505021911 64 176 1.0 1.0 0.00 0.36 0.36 70 1001.2
20260505021407 64 161 2.0 3.0 0.00 0.36 0.36 69 1001.1
20260505020903 64 160 2.0 3.0 0.00 0.36 0.36 70 1000.9
20260505020358 65 220 3.0 3.0 0.00 0.36 0.36 69 1000.8
20260505015855 65 172 4.0 4.0 0.00 0.36 0.36 68 1001.0
20260505015353 65 223 6.0 9.0 0.00 0.36 0.36 69 1001.0
20260505014850 65 204 4.0 6.0 0.00 0.36 0.36 68 1001.0
20260505014347 66 172 4.0 6.0 0.00 0.36 0.36 68 1000.9
20260505013843 66 179 4.0 4.0 0.00 0.36 0.36 68 1001.0
20260505013340 66 121 1.0 1.0 0.00 0.36 0.36 69 1000.7
20260505012839 66 230 3.0 4.0 0.00 0.36 0.36 68 1000.3
20260505012337 65 214 3.0 3.0 0.00 0.36 0.36 70 1000.4
20260505011832 65 209 6.0 10.0 0.00 0.36 0.36 71 1000.4
20260505011329 65 230 6.0 7.0 0.00 0.36 0.36 72 1000.0
20260505010825 65 179 6.0 7.0 0.00 0.36 0.36 73 1000.1
20260505010321 65 134 4.0 4.0 0.00 0.36 0.36 74 999.9
20260505005817 65 207 4.0 4.0 0.00 0.36 0.36 74 999.8
20260505005315 65 176 2.0 3.0 0.00 0.36 0.36 74 999.9
20260505004812 65 182 3.0 3.0 0.00 0.36 0.36 72 999.6
20260505004308 65 201 8.0 9.0 0.00 0.36 0.36 72 999.9
20260505003806 64 170 3.0 4.0 0.00 0.36 0.36 72 999.6
20260505003303 63 77 3.0 4.0 0.00 0.36 0.36 78 999.6
20260505002759 64 135 3.0 4.0 0.00 0.36 0.36 77 999.8
20260505002256 63 151 3.0 3.0 0.00 0.36 0.36 79 999.8
20260505001754 62 186 5.0 7.0 0.00 0.36 0.36 82 999.7
20260505001251 61 205 4.0 4.0 0.00 0.36 0.36 88 999.6
20260505000748 61 143 1.0 2.0 0.00 0.36 0.36 91 999.6
20260505000246 61 179 0.0 0.0 0.00 0.36 0.36 92 999.2
20260504235742 61 192 0.0 0.0 0.00 0.36 0.36 90 999.1
20260504235238 61 189 3.0 3.0 0.00 0.36 0.36 88 999.1
20260504234736 61 26 0.0 0.0 0.54 0.36 0.36 86 999.0
20260504234233 62 147 3.0 3.0 1.21 0.36 0.36 79 999.3
20260504233729 61 184 10.0 14.0 1.06 0.29 0.29 87 1000.7
20260504233225 63 297 3.0 4.0 1.02 0.17 0.17 84 1000.9
20260504232723 66 315 6.0 8.0 0.66 0.11 0.11 74 1000.6
20260504232219 69 312 4.0 6.0 0.00 0.00 0.00 61 999.8
20260504231716 69 6 4.0 9.0 0.00 0.00 0.00 60 999.5
20260504231213 72 252 4.0 4.0 0.00 0.00 0.00 54 999.7
20260504230709 73 288 3.0 3.0 0.00 0.00 0.00 47 999.3
20260504230208 74 187 3.0 4.0 0.00 0.00 0.00 47 999.2
20260504225706 74 159 2.0 3.0 0.00 0.00 0.00 46 999.0
20260504225201 74 240 5.0 8.0 0.00 0.00 0.00 46 999.3
20260504224659 75 274 5.0 8.0 0.00 0.00 0.00 44 999.3
20260504224156 76 180 5.0 8.0 0.00 0.00 0.00 42 999.2
20260504223653 76 179 2.0 3.0 0.00 0.00 0.00 43 999.2
20260504223148 77 169 3.0 3.0 0.00 0.00 0.00 41 999.1
20260504222645 78 169 7.0 9.0 0.00 0.00 0.00 37 999.3
20260504222142 78 186 6.0 10.0 0.00 0.00 0.00 37 999.2
20260504221640 80 189 5.0 7.0 0.00 0.00 0.00 36 999.1
20260504221136 81 139 2.0 3.0 0.00 0.00 0.00 36 999.1
20260504220632 81 103 3.0 4.0 0.00 0.00 0.00 35 999.1
20260504220131 81 198 2.0 3.0 0.00 0.00 0.00 36 999.2
20260504215626 80 168 2.0 3.0 0.00 0.00 0.00 35 999.3
20260504215124 80 228 2.0 3.0 0.00 0.00 0.00 35 999.2
20260504214620 81 248 6.0 8.0 0.00 0.00 0.00 34 999.4
20260504214116 80 206 6.0 10.0 0.00 0.00 0.00 35 999.5
20260504213613 81 229 3.0 4.0 0.00 0.00 0.00 35 999.5
20260504213110 82 183 5.0 9.0 0.00 0.00 0.00 34 999.6
20260504212606 81 241 6.0 13.0 0.00 0.00 0.00 34 999.8
20260504212103 81 202 5.0 7.0 0.00 0.00 0.00 33 999.5
20260504211600 81 174 2.0 3.0 0.00 0.00 0.00 34 999.9
20260504211057 81 242 7.0 9.0 0.00 0.00 0.00 33 999.5
20260504210554 79 155 7.0 10.0 0.00 0.00 0.00 34 999.8
20260504210050 79 239 2.0 3.0 0.00 0.00 0.00 35 999.9
20260504205548 79 324 4.0 7.0 0.00 0.00 0.00 35 999.8
20260504205046 80 202 4.0 4.0 0.00 0.00 0.00 36 999.8
20260504204544 80 189 2.0 2.0 0.00 0.00 0.00 35 1000.0
20260504204043 82 203 6.0 7.0 0.00 0.00 0.00 35 999.7
20260504203540 82 174 5.0 10.0 0.00 0.00 0.00 34 999.7
20260504203038 82 191 4.0 8.0 0.00 0.00 0.00 35 1000.1
20260504202533 80 356 2.0 4.0 0.00 0.00 0.00 38 1000.1
20260504202030 81 185 7.0 9.0 0.00 0.00 0.00 35 1000.1
20260504201527 81 228 4.0 6.0 0.00 0.00 0.00 35 1000.4
20260504201025 79 258 3.0 4.0 0.00 0.00 0.00 36 1000.4
20260504200521 81 229 3.0 9.0 0.00 0.00 0.00 34 1000.6
20260504200018 81 234 4.0 4.0 0.00 0.00 0.00 34 1000.4
20260504195514 79 256 4.0 6.0 0.00 0.00 0.00 35 1000.5
20260504195011 80 52 3.0 4.0 0.00 0.00 0.00 34 1000.7
20260504194507 80 147 5.0 8.0 0.00 0.00 0.00 32 1000.8
20260504194002 78 210 5.0 11.0 0.00 0.00 0.00 34 1001.0
20260504193500 78 223 6.0 8.0 0.00 0.00 0.00 33 1001.1
20260504192959 80 174 5.0 9.0 0.00 0.00 0.00 33 1000.9
20260504192456 81 164 5.0 8.0 0.00 0.00 0.00 30 1000.9
20260504191955 80 240 3.0 4.0 0.00 0.00 0.00 30 1001.0
20260504191452 80 187 6.0 8.0 0.00 0.00 0.00 29 1001.0
20260504190947 80 291 5.0 8.0 0.00 0.00 0.00 30 1001.1
20260504190443 80 276 2.0 3.0 0.00 0.00 0.00 32 1001.2
20260504185940 80 172 6.0 9.0 0.00 0.00 0.00 32 1001.2
20260504185437 80 159 4.0 4.0 0.00 0.00 0.00 32 1001.2
20260504184933 79 284 0.0 1.0 0.00 0.00 0.00 34 1001.0
20260504184429 78 208 1.0 2.0 0.00 0.00 0.00 32 1001.1
20260504183925 78 113 3.0 4.0 0.00 0.00 0.00 31 1001.3
20260504183423 78 244 6.0 10.0 0.00 0.00 0.00 32 1001.5
20260504182921 78 158 2.0 3.0 0.00 0.00 0.00 32 1001.4
20260504182417 78 211 4.0 6.0 0.00 0.00 0.00 33 1001.6
20260504181914 77 181 4.0 4.0 0.00 0.00 0.00 32 1001.7
20260504181411 78 216 6.0 7.0 0.00 0.00 0.00 33 1001.6
20260504180910 77 155 5.0 6.0 0.00 0.00 0.00 33 1001.6
20260504180408 77 201 4.0 7.0 0.00 0.00 0.00 32 1001.9
20260504175906 78 210 7.0 9.0 0.00 0.00 0.00 32 1002.1
20260504175403 78 168 4.0 6.0 0.00 0.00 0.00 34 1001.8
20260504174900 77 198 2.0 3.0 0.00 0.00 0.00 33 1001.9
20260504174358 77 194 6.0 8.0 0.00 0.00 0.00 33 1001.8
20260504173855 76 211 7.0 10.0 0.00 0.00 0.00 33 1002.0
20260504173351 77 205 9.0 14.0 0.00 0.00 0.00 34 1002.1
20260504172849 76 193 2.0 2.0 0.00 0.00 0.00 38 1001.9
20260504172345 76 238 8.0 10.0 0.00 0.00 0.00 38 1002.0
20260504171841 76 240 5.0 6.0 0.00 0.00 0.00 37 1002.2
20260504171338 76 281 5.0 6.0 0.00 0.00 0.00 39 1002.3
20260504170835 76 198 5.0 8.0 0.00 0.00 0.00 37 1002.4
20260504170332 75 149 9.0 11.0 0.00 0.00 0.00 39 1002.3
20260504160251 73 346 4.0 7.0 0.00 0.00 0.00 39 1003.2
20260504150716 70 189 4.0 6.0 0.00 0.00 0.00 41 1003.9
20260504150213 70 250 3.0 6.0 0.00 0.00 0.00 41 1004.1
20260504141142 65 112 0.0 0.0 0.00 0.00 0.00 50 1004.5
20260504140639 66 139 4.0 6.0 0.00 0.00 0.00 50 1004.6
20260504140134 64 225 2.0 3.0 0.00 0.00 0.00 53 1004.6
20260504130602 61 165 1.0 1.0 0.00 0.00 0.00 60 1005.2
20260504110450 51 196 2.0 2.0 0.00 0.00 0.00 80 1005.6
20260504100413 51 153 0.0 0.0 0.00 0.00 0.00 79 1005.5
20260504081806 50 174 0.0 0.0 0.00 0.00 0.00 80 1005.5
20260504081302 51 87 0.0 0.0 0.00 0.00 0.00 80 1005.3
20260504080759 51 154 0.0 0.0 0.00 0.00 0.00 81 1005.3
20260504080255 51 155 0.0 0.0 0.00 0.00 0.00 79 1005.4
20260504070223 55 162 0.0 0.0 0.00 0.00 0.00 71 1006.4
20260504060143 59 223 3.0 6.0 0.00 0.00 0.00 64 1006.8